Terminal Aerodrome Forecast
Issued by NWS

Current Version | Previous Version | Text Only | Print | Product List | Glossary On
Versions: 1 2 3 4 5 6 7 8 9 10 11 12 13
000
FTUS43 KOAX 292300
TAFBFF
TAF
KBFF 292320Z 3000/3024 10006KT 4SM -TSRA SCT025CB OVC040
     FM300600 VRB04KT P6SM -SHRA SCT040 BKN060=

USA.gov is the U.S. government's official web portal to all federal, state and local government web resources and services.